Weather History for Mosinee, WI

Change the Weather History Date:

Sunday, September 22, 2013

  Actual Average Record
Temperature  
Mean Temperature 47 °F -  
Max Temperature 59 °F 63 °F 78 °F (2004)
Min Temperature 35 °F 42 °F 35 °F (2012)
Degree Days  
Heating Degree Days 18    
Moisture  
Dew Point 39 °F    
Average Humidity 88    
Maximum Humidity 100    
Minimum Humidity 48    
Precipitation  
Precipitation 0.00 in - - ()
Sea Level Pressure  
Sea Level Pressure 30.05 in    
Wind  
Wind Speed 3 mph (East)    
Max Wind Speed 7 mph    
Max Gust Speed -    
Visibility 10 miles    
Events      
Averages and records for this station are not official NWS values.
T = Trace of Precipitation, MM = Missing Value Source: NWS Daily Summary

Daily Weather History Graph

Daily Weather History Graph

Search for Another Location

Airport:

Trip Planner

Search our weather history database for the weather conditions in past years. The results will help you decide how hot, cold, wet, or windy it might be!

Date:

Astronomy

Sep. 22, 2013 Rise Set
Actual Time 6:46 AM CDT 6:55 PM CDT
Civil Twilight 6:16 AM CDT 7:24 PM CDT
Nautical Twilight 5:42 AM CDT 7:59 PM CDT
Astronomical Twilight 5:07 AM CDT 8:34 PM CDT
Moon 8:35 PM CDT (9/22) 10:16 AM CDT (9/22)
Length of Visible Light 13h 07m
Length of Day
12h 09m
Waning Gibbous, 88% of the Moon is Illuminated
Sep 22
Waning Gibbous
Sep 26
Last Quarter
Oct 4
New
Oct 11
First Quarter
Oct 18
Full

Hourly Weather History & Observations

Time (CDT) Temp. Windchill Dew Point Humidity Pressure Visibility Wind Dir Wind Speed Gust Speed Precip Events Conditions
12:15 AM 39.2 °F - 39.2 °F 100% 30.00 in 10.0 mi Calm Calm - N/A   Clear
12:35 AM 37.4 °F 34.9 °F 37.4 °F 100% 30.01 in 10.0 mi ENE 3.5 mph - N/A   Clear
12:55 AM 39.2 °F - 39.2 °F 100% 30.01 in 10.0 mi Calm Calm - N/A   Clear
1:15 AM 37.4 °F - 37.4 °F 100% 30.01 in 10.0 mi Calm Calm - N/A   Clear
1:35 AM 37.4 °F 33.8 °F 37.4 °F 100% 30.01 in 10.0 mi NE 4.6 mph - N/A   Clear
1:55 AM 37.4 °F - 37.4 °F 100% 30.02 in 10.0 mi Calm Calm - N/A   Clear
2:15 AM 39.2 °F - 39.2 °F 100% 30.02 in 10.0 mi Calm Calm - N/A   Clear
2:35 AM 37.4 °F - 37.4 °F 100% 30.02 in 7.0 mi Calm Calm - N/A   Clear
2:55 AM 37.4 °F - 37.4 °F 100% 30.03 in 10.0 mi Calm Calm - N/A   Clear
3:15 AM 37.4 °F - 37.4 °F 100% 30.03 in 7.0 mi Calm Calm - N/A   Clear
3:35 AM 37.4 °F - 37.4 °F 100% 30.03 in 10.0 mi Calm Calm - N/A   Clear
3:55 AM 37.4 °F - 37.4 °F 100% 30.03 in 10.0 mi Calm Calm - N/A   Clear
4:15 AM 37.4 °F - 37.4 °F 100% 30.03 in 7.0 mi Calm Calm - N/A   Clear
4:35 AM 35.6 °F - 35.6 °F 100% 30.03 in 10.0 mi Calm Calm - N/A   Clear
4:55 AM 35.6 °F - 35.6 °F 100% 30.04 in 7.0 mi Calm Calm - N/A   Clear
5:15 AM 35.6 °F - 35.6 °F 100% 30.04 in 10.0 mi Calm Calm - N/A   Clear
5:35 AM 35.6 °F 32.8 °F 35.6 °F 100% 30.04 in 10.0 mi NNE 3.5 mph - N/A   Clear
5:45 AM 37.4 °F 33.8 °F 37.4 °F 100% 30.04 in 10.0 mi NNE 4.6 mph - N/A   Clear
6:45 AM 35.6 °F 31.7 °F 35.6 °F 100% 30.05 in 10.0 mi ENE 4.6 mph - N/A   Clear
7:45 AM 37.4 °F 34.9 °F 35.6 °F 93% 30.07 in 10.0 mi ENE 3.5 mph - N/A   Clear
8:45 AM 42.8 °F 40.1 °F 39.2 °F 87% 30.09 in 10.0 mi East 4.6 mph - N/A   Clear
9:45 AM 46.4 °F 42.9 °F 41.0 °F 81% 30.10 in 10.0 mi East 6.9 mph - N/A   Clear
10:50 AM 51.8 °F - 41.0 °F 67% 30.11 in 10.0 mi SE 5.8 mph - N/A   Scattered Clouds
11:50 AM 51.8 °F - 39.2 °F 62% 30.10 in 10.0 mi SE 6.9 mph - N/A   Clear
12:50 PM 55.4 °F - 39.2 °F 54% 30.08 in 10.0 mi Variable 3.5 mph - N/A   Clear
1:50 PM 55.4 °F - 39.2 °F 54% 30.06 in 10.0 mi Variable 5.8 mph - N/A   Clear
2:45 PM 57.2 °F - 39.2 °F 51% 30.04 in 10.0 mi Variable 5.8 mph - N/A   Clear
3:50 PM 59.0 °F - 39.2 °F 48% 30.03 in 10.0 mi SE 5.8 mph - N/A   Clear
4:45 PM 59.0 °F - 41.0 °F 51% 30.02 in 10.0 mi ESE 6.9 mph - N/A   Clear
5:50 PM 57.2 °F - 42.8 °F 59% 30.02 in 10.0 mi ESE 5.8 mph - N/A   Clear
6:50 PM 51.8 °F - 42.8 °F 71% 30.03 in 10.0 mi East 4.6 mph - N/A   Clear
7:50 PM 48.2 °F - 42.8 °F 82% 30.04 in 10.0 mi East 5.8 mph - N/A   Clear
8:50 PM 46.4 °F 43.5 °F 42.8 °F 87% 30.06 in 10.0 mi ESE 5.8 mph - N/A   Clear
9:50 PM 44.6 °F 40.7 °F 42.8 °F 93% 30.07 in 10.0 mi ESE 6.9 mph - N/A   Clear
10:15 PM 42.8 °F 38.6 °F 42.8 °F 100% 30.07 in 7.0 mi ESE 6.9 mph - N/A   Clear
10:35 PM 42.8 °F 38.6 °F 42.8 °F 100% 30.07 in 7.0 mi ESE 6.9 mph - N/A   Clear
10:55 PM 42.8 °F 38.6 °F 42.8 °F 100% 30.07 in 7.0 mi ESE 6.9 mph - N/A   Clear
11:15 PM 42.8 °F 38.6 °F 41.0 °F 93% 30.07 in 10.0 mi ESE 6.9 mph - N/A   Clear
11:35 PM 42.8 °F 38.6 °F 41.0 °F 93% 30.07 in 10.0 mi ESE 6.9 mph - N/A   Clear
11:55 PM 42.8 °F 39.3 °F 41.0 °F 93% 30.07 in 10.0 mi SE 5.8 mph - N/A   Clear